Time,TemperatureF,DewpointF,PressureIn,WindDirection,WindDirectionDegrees,WindSpeedMPH,WindSpeedGustMPH,Humidity,HourlyPrecipIn,Conditions,Clouds,dailyrainin,SolarRadiationWatts/m^2,SoftwareType,DateUTC
2013-11-03 00:00:00,41.4,33.0,30.08,SSE,167,9.0,9.0,72,0.00,,,0.00,0,Wunderground v.1.15,2013-11-03 05:00:00,
2013-11-03 00:10:00,40.9,32.9,30.08,South,170,6.0,8.0,73,0.00,,,0.00,0,Wunderground v.1.15,2013-11-03 05:10:00,
2013-11-03 00:15:00,40.6,33.0,30.08,South,184,8.0,8.0,74,0.00,,,0.00,0,Wunderground v.1.15,2013-11-03 05:15:00,
2013-11-03 00:20:00,40.7,32.7,30.07,SSE,166,11.0,11.0,73,0.00,,,0.00,0,Wunderground v.1.15,2013-11-03 05:20:00,
2013-11-03 00:25:00,40.9,32.9,30.07,South,169,7.0,11.0,73,0.00,,,0.00,0,Wunderground v.1.15,2013-11-03 05:25:00,
2013-11-03 00:30:00,40.9,32.9,30.07,SSE,165,8.0,8.0,73,0.00,,,0.00,0,Wunderground v.1.15,2013-11-03 05:30:00,
2013-11-03 00:35:00,41.3,33.0,30.07,South,177,11.0,11.0,72,0.00,,,0.00,0,Wunderground v.1.15,2013-11-03 05:35:00,
2013-11-03 00:45:00,41.6,32.9,30.06,SSE,163,10.0,10.0,71,0.00,,,0.00,0,Wunderground v.1.15,2013-11-03 05:45:00,
2013-11-03 00:50:00,41.5,32.8,30.06,SSE,161,8.0,9.0,71,0.00,,,0.00,0,Wunderground v.1.15,2013-11-03 05:50:00,
2013-11-03 00:55:00,41.3,33.0,30.05,SSE,163,10.0,10.0,72,0.00,,,0.00,0,Wunderground v.1.15,2013-11-03 05:55:00,
2013-11-03 01:00:00,41.3,33.0,30.06,SSE,163,7.0,9.0,72,0.00,,,0.00,0,Wunderground v.1.15,2013-11-03 06:00:00,
2013-11-03 01:10:00,41.5,33.1,30.06,South,173,8.0,8.0,72,0.00,,,0.00,0,Wunderground v.1.15,2013-11-03 06:10:00,
2013-11-03 01:15:00,41.1,32.8,30.06,South,171,7.0,8.0,72,0.00,,,0.00,0,Wunderground v.1.15,2013-11-03 06:15:00,
2013-11-03 01:25:00,41.0,33.0,30.06,SSE,158,8.0,8.0,73,0.00,,,0.00,0,Wunderground v.1.15,2013-11-03 06:25:00,
2013-11-03 01:30:00,41.2,33.2,30.06,South,171,12.0,12.0,73,0.00,,,0.00,0,Wunderground v.1.15,2013-11-03 06:30:00,
2013-11-03 01:35:00,41.5,33.1,30.05,South,174,12.0,12.0,72,0.00,,,0.00,0,Wunderground v.1.15,2013-11-03 06:35:00,
2013-11-03 01:40:00,41.6,33.2,30.05,South,169,10.0,10.0,72,0.00,,,0.00,0,Wunderground v.1.15,2013-11-03 06:40:00,
2013-11-03 01:50:00,41.6,33.2,30.06,South,177,11.0,11.0,72,0.00,,,0.00,0,Wunderground v.1.15,2013-11-03 06:50:00,
2013-11-03 01:55:00,41.6,33.2,30.05,South,180,11.0,11.0,72,0.00,,,0.00,0,Wunderground v.1.15,2013-11-03 06:55:00,
2013-11-03 01:00:00,41.6,33.2,30.05,SSE,165,9.0,10.0,72,0.00,,,0.00,0,Wunderground v.1.15,2013-11-03 07:00:00,
2013-11-03 01:05:00,41.3,33.0,30.06,SSE,163,10.0,10.0,72,0.00,,,0.00,0,Wunderground v.1.15,2013-11-03 07:05:00,
2013-11-03 01:10:00,41.0,33.0,30.05,SSE,163,8.0,9.0,73,0.00,,,0.00,0,Wunderground v.1.15,2013-11-03 07:10:00,
2013-11-03 01:20:00,41.0,33.0,30.05,SSE,166,9.0,9.0,73,0.00,,,0.00,0,Wunderground v.1.15,2013-11-03 07:20:00,
2013-11-03 01:25:00,41.0,33.0,30.05,SSE,155,10.0,10.0,73,0.00,,,0.00,0,Wunderground v.1.15,2013-11-03 07:25:00,
2013-11-03 01:30:00,41.1,33.1,30.05,SSE,163,9.0,10.0,73,0.00,,,0.00,0,Wunderground v.1.15,2013-11-03 07:30:00,
2013-11-03 01:35:00,41.0,33.0,30.05,SSE,164,12.0,12.0,73,0.00,,,0.00,0,Wunderground v.1.15,2013-11-03 07:35:00,
2013-11-03 01:40:00,41.0,33.0,30.04,South,173,9.0,10.0,73,0.00,,,0.00,0,Wunderground v.1.15,2013-11-03 07:40:00,
2013-11-03 01:50:00,40.9,32.9,30.04,South,175,11.0,11.0,73,0.00,,,0.00,0,Wunderground v.1.15,2013-11-03 07:50:00,
2013-11-03 01:55:00,40.9,32.9,30.04,South,169,9.0,11.0,73,0.00,,,0.00,0,Wunderground v.1.15,2013-11-03 07:55:00,
2013-11-03 02:00:00,40.9,32.9,30.03,SSE,165,7.0,9.0,73,0.00,,,0.00,0,Wunderground v.1.15,2013-11-03 08:00:00,
2013-11-03 02:05:00,40.8,33.2,30.03,SSE,165,9.0,12.0,74,0.00,,,0.00,0,Wunderground v.1.15,2013-11-03 08:05:00,
2013-11-03 02:10:00,40.8,33.2,30.03,SSE,155,10.0,11.0,74,0.00,,,0.00,0,Wunderground v.1.15,2013-11-03 08:10:00,
2013-11-03 02:15:00,40.6,33.0,30.03,SSE,163,9.0,12.0,74,0.00,,,0.00,0,Wunderground v.1.15,2013-11-03 08:15:00,
2013-11-03 02:20:00,40.6,33.0,30.03,South,175,10.0,13.0,74,0.00,,,0.00,0,Wunderground v.1.15,2013-11-03 08:20:00,
2013-11-03 02:25:00,40.5,32.9,30.03,SSE,159,10.0,15.0,74,0.00,,,0.00,0,Wunderground v.1.15,2013-11-03 08:25:00,
2013-11-03 02:30:00,40.5,32.9,30.03,SSE,160,11.0,13.0,74,0.00,,,0.00,0,Wunderground v.1.15,2013-11-03 08:30:00,
2013-11-03 02:35:00,40.5,32.9,30.02,SSW,196,8.0,13.0,74,0.00,,,0.00,0,Wunderground v.1.15,2013-11-03 08:35:00,
2013-11-03 02:40:00,40.5,32.9,30.02,SSW,195,9.0,11.0,74,0.00,,,0.00,0,Wunderground v.1.15,2013-11-03 08:40:00,
2013-11-03 02:45:00,40.4,32.8,30.02,SSE,157,9.0,11.0,74,0.00,,,0.00,0,Wunderground v.1.15,2013-11-03 08:45:00,
2013-11-03 02:50:00,40.3,32.7,30.02,SSE,155,8.0,11.0,74,0.00,,,0.00,0,Wunderground v.1.15,2013-11-03 08:50:00,
2013-11-03 02:55:00,40.2,32.6,30.02,SSE,167,10.0,12.0,74,0.00,,,0.00,0,Wunderground v.1.15,2013-11-03 08:55:00,
2013-11-03 03:00:00,40.4,32.8,30.02,SSE,155,11.0,13.0,74,0.00,,,0.00,0,Wunderground v.1.15,2013-11-03 09:00:00,
2013-11-03 03:05:00,40.5,32.5,30.02,SSE,163,11.0,14.0,73,0.00,,,0.00,0,Wunderground v.1.15,2013-11-03 09:05:00,
2013-11-03 03:10:00,40.6,32.6,30.01,SSE,150,12.0,14.0,73,0.00,,,0.00,0,Wunderground v.1.15,2013-11-03 09:10:00,
2013-11-03 03:15:00,40.6,32.6,30.02,SSE,159,11.0,15.0,73,0.00,,,0.00,0,Wunderground v.1.15,2013-11-03 09:15:00,
2013-11-03 03:20:00,40.5,32.5,30.02,SSE,157,11.0,14.0,73,0.00,,,0.00,0,Wunderground v.1.15,2013-11-03 09:20:00,
2013-11-03 03:25:00,40.4,32.4,30.01,SSE,156,11.0,14.0,73,0.00,,,0.00,0,Wunderground v.1.15,2013-11-03 09:25:00,
2013-11-03 03:30:00,40.3,32.3,30.01,SSE,153,13.0,13.0,73,0.00,,,0.00,0,Wunderground v.1.15,2013-11-03 09:30:00,
2013-11-03 03:35:00,40.1,32.1,30.01,SSE,150,11.0,13.0,73,0.00,,,0.00,0,Wunderground v.1.15,2013-11-03 09:35:00,
2013-11-03 03:40:00,40.0,32.4,30.01,South,171,12.0,15.0,74,0.00,,,0.00,0,Wunderground v.1.15,2013-11-03 09:40:00,
2013-11-03 03:45:00,40.2,32.2,30.01,SSE,160,13.0,16.0,73,0.00,,,0.00,0,Wunderground v.1.15,2013-11-03 09:45:00,
2013-11-03 03:50:00,40.3,32.3,30.00,SSE,164,11.0,14.0,73,0.00,,,0.00,0,Wunderground v.1.15,2013-11-03 09:50:00,
2013-11-03 03:55:00,40.2,32.2,30.00,SSE,154,10.0,14.0,73,0.00,,,0.00,0,Wunderground v.1.15,2013-11-03 09:55:00,
2013-11-03 04:00:00,39.9,31.9,30.00,SSE,155,13.0,13.0,73,0.00,,,0.00,0,Wunderground v.1.15,2013-11-03 10:00:00,
2013-11-03 04:05:00,39.7,32.1,30.00,SSE,156,12.0,15.0,74,0.00,,,0.00,0,Wunderground v.1.15,2013-11-03 10:05:00,
2013-11-03 04:10:00,39.7,32.1,29.99,SSE,153,10.0,14.0,74,0.00,,,0.00,0,Wunderground v.1.15,2013-11-03 10:10:00,
2013-11-03 04:15:00,39.7,32.1,29.99,SSE,157,11.0,17.0,74,0.00,,,0.00,0,Wunderground v.1.15,2013-11-03 10:15:00,
2013-11-03 04:20:00,39.9,32.3,29.99,SSE,165,12.0,17.0,74,0.00,,,0.00,0,Wunderground v.1.15,2013-11-03 10:20:00,
2013-11-03 04:25:00,39.8,32.2,29.99,SSE,165,12.0,18.0,74,0.00,,,0.00,0,Wunderground v.1.15,2013-11-03 10:25:00,
2013-11-03 04:30:00,39.9,32.3,29.99,SSE,161,14.0,17.0,74,0.00,,,0.00,0,Wunderground v.1.15,2013-11-03 10:30:00,
2013-11-03 04:35:00,40.0,32.0,29.99,SSE,153,12.0,17.0,73,0.00,,,0.00,0,Wunderground v.1.15,2013-11-03 10:35:00,
2013-11-03 04:40:00,40.0,32.0,29.98,SSE,163,11.0,17.0,73,0.00,,,0.00,0,Wunderground v.1.15,2013-11-03 10:40:00,
2013-11-03 04:45:00,40.2,32.2,29.98,SSE,157,13.0,17.0,73,0.00,,,0.00,0,Wunderground v.1.15,2013-11-03 10:45:00,
2013-11-03 04:50:00,40.2,32.2,29.98,SSE,150,18.0,18.0,73,0.00,,,0.00,0,Wunderground v.1.15,2013-11-03 10:50:00,
2013-11-03 04:55:00,40.2,32.2,29.97,SSE,161,14.0,20.0,73,0.00,,,0.00,0,Wunderground v.1.15,2013-11-03 10:55:00,
2013-11-03 05:00:00,40.2,32.2,29.97,SSE,149,14.0,17.0,73,0.00,,,0.00,0,Wunderground v.1.15,2013-11-03 11:00:00,
2013-11-03 05:05:00,40.3,32.3,29.97,SSE,153,13.0,19.0,73,0.00,,,0.00,0,Wunderground v.1.15,2013-11-03 11:05:00,
2013-11-03 05:10:00,40.4,32.4,29.97,SSE,159,16.0,21.0,73,0.00,,,0.00,0,Wunderground v.1.15,2013-11-03 11:10:00,
2013-11-03 05:15:00,40.4,32.1,29.97,SSE,156,16.0,21.0,72,0.00,,,0.00,0,Wunderground v.1.15,2013-11-03 11:15:00,
2013-11-03 05:20:00,40.7,32.4,29.96,SE,146,18.0,20.0,72,0.00,,,0.00,0,Wunderground v.1.15,2013-11-03 11:20:00,
2013-11-03 05:25:00,41.1,32.4,29.96,SE,145,19.0,21.0,71,0.00,,,0.00,0,Wunderground v.1.15,2013-11-03 11:25:00,
2013-11-03 05:30:00,41.3,32.2,29.95,SSE,152,22.0,22.0,70,0.00,,,0.00,0,Wunderground v.1.15,2013-11-03 11:30:00,
2013-11-03 05:35:00,41.5,32.1,29.95,SSE,154,24.0,24.0,69,0.00,,,0.00,0,Wunderground v.1.15,2013-11-03 11:35:00,
2013-11-03 05:40:00,41.6,32.2,29.95,SSE,163,16.0,21.0,69,0.00,,,0.00,0,Wunderground v.1.15,2013-11-03 11:40:00,
2013-11-03 05:45:00,41.6,31.8,29.94,South,169,14.0,23.0,68,0.00,,,0.00,0,Wunderground v.1.15,2013-11-03 11:45:00,
2013-11-03 05:50:00,41.7,31.9,29.94,SSE,165,15.0,21.0,68,0.00,,,0.00,0,Wunderground v.1.15,2013-11-03 11:50:00,
2013-11-03 05:55:00,41.7,31.5,29.94,SSE,157,20.0,21.0,67,0.00,,,0.00,0,Wunderground v.1.15,2013-11-03 11:55:00,
2013-11-03 06:00:00,41.8,31.6,29.94,SSE,158,17.0,18.0,67,0.00,,,0.00,0,Wunderground v.1.15,2013-11-03 12:00:00,
2013-11-03 06:05:00,41.8,31.6,29.93,SSE,158,15.0,23.0,67,0.00,,,0.00,0,Wunderground v.1.15,2013-11-03 12:05:00,
2013-11-03 06:10:00,41.9,31.7,29.93,SSE,156,21.0,24.0,67,0.00,,,0.00,0,Wunderground v.1.15,2013-11-03 12:10:00,
2013-11-03 06:15:00,42.0,31.5,29.93,SE,146,20.0,26.0,66,0.00,,,0.00,0,Wunderground v.1.15,2013-11-03 12:15:00,
2013-11-03 06:20:00,42.1,31.6,29.93,SSE,155,15.0,18.0,66,0.00,,,0.00,0,Wunderground v.1.15,2013-11-03 12:20:00,
2013-11-03 06:25:00,42.1,31.6,29.94,SSE,157,20.0,20.0,66,0.00,,,0.00,0,Wunderground v.1.15,2013-11-03 12:25:00,
2013-11-03 06:30:00,42.0,31.8,29.93,SSE,160,22.0,26.0,67,0.00,,,0.00,0,Wunderground v.1.15,2013-11-03 12:30:00,
2013-11-03 06:35:00,42.1,31.9,29.93,South,179,13.0,26.0,67,0.00,,,0.00,0,Wunderground v.1.15,2013-11-03 12:35:00,
2013-11-03 06:40:00,42.2,31.6,29.93,SSE,161,17.0,21.0,66,0.00,,,0.00,0,Wunderground v.1.15,2013-11-03 12:40:00,
2013-11-03 06:45:00,42.2,31.6,29.92,SSE,156,17.0,23.0,66,0.00,,,0.00,0,Wunderground v.1.15,2013-11-03 12:45:00,
2013-11-03 06:50:00,42.3,31.7,29.93,SSE,157,20.0,22.0,66,0.00,,,0.00,0,Wunderground v.1.15,2013-11-03 12:50:00,
2013-11-03 06:55:00,42.3,31.7,29.93,SSE,156,18.0,22.0,66,0.00,,,0.00,0,Wunderground v.1.15,2013-11-03 12:55:00,
2013-11-03 07:00:00,42.2,31.6,29.93,SSE,168,16.0,23.0,66,0.00,,,0.00,5,Wunderground v.1.15,2013-11-03 13:00:00,
2013-11-03 07:05:00,42.2,32.0,29.93,SSE,155,15.0,23.0,67,0.00,,,0.00,9,Wunderground v.1.15,2013-11-03 13:05:00,
2013-11-03 07:10:00,42.3,32.1,29.92,SSE,164,16.0,22.0,67,0.00,,,0.00,11,Wunderground v.1.15,2013-11-03 13:10:00,
2013-11-03 07:15:00,42.4,31.8,29.92,SSE,162,23.0,23.0,66,0.00,,,0.00,14,Wunderground v.1.15,2013-11-03 13:15:00,
2013-11-03 07:20:00,42.4,32.2,29.92,South,179,16.0,18.0,67,0.00,,,0.00,18,Wunderground v.1.15,2013-11-03 13:20:00,
2013-11-03 07:25:00,42.4,32.2,29.91,SSE,150,19.0,22.0,67,0.00,,,0.00,21,Wunderground v.1.15,2013-11-03 13:25:00,
2013-11-03 07:30:00,42.5,32.3,29.91,SE,146,15.0,26.0,67,0.00,,,0.00,33,Wunderground v.1.15,2013-11-03 13:30:00,
2013-11-03 07:35:00,42.5,32.7,29.91,SSE,159,16.0,26.0,68,0.00,,,0.00,42,Wunderground v.1.15,2013-11-03 13:35:00,
2013-11-03 07:40:00,42.6,32.8,29.91,SSE,162,18.0,19.0,68,0.00,,,0.00,54,Wunderground v.1.15,2013-11-03 13:40:00,
2013-11-03 07:45:00,42.9,33.1,29.91,SSE,157,21.0,21.0,68,0.00,,,0.00,69,Wunderground v.1.15,2013-11-03 13:45:00,
2013-11-03 07:50:00,43.2,33.0,29.90,SSE,163,15.0,19.0,67,0.00,,,0.00,84,Wunderground v.1.15,2013-11-03 13:50:00,
2013-11-03 07:55:00,43.6,33.4,29.90,SSE,164,19.0,22.0,67,0.00,,,0.00,102,Wunderground v.1.15,2013-11-03 13:55:00,
2013-11-03 08:00:00,44.1,33.5,29.90,SSE,155,26.0,26.0,66,0.00,,,0.00,120,Wunderground v.1.15,2013-11-03 14:00:00,
2013-11-03 08:05:00,44.6,33.6,29.90,SSE,150,21.0,26.0,65,0.00,,,0.00,135,Wunderground v.1.15,2013-11-03 14:05:00,
2013-11-03 08:10:00,45.2,33.7,29.90,SSE,154,27.0,27.0,64,0.00,,,0.00,156,Wunderground v.1.15,2013-11-03 14:10:00,
2013-11-03 08:15:00,45.8,33.5,29.89,South,171,22.0,27.0,62,0.00,,,0.00,176,Wunderground v.1.15,2013-11-03 14:15:00,
2013-11-03 08:20:00,46.3,34.0,29.89,SSE,159,18.0,26.0,62,0.00,,,0.00,195,Wunderground v.1.15,2013-11-03 14:20:00,
2013-11-03 08:25:00,46.8,34.0,29.89,South,178,25.0,26.0,61,0.00,,,0.00,214,Wunderground v.1.15,2013-11-03 14:25:00,
2013-11-03 08:30:00,47.0,34.2,29.89,SSE,163,26.0,26.0,61,0.00,,,0.00,236,Wunderground v.1.15,2013-11-03 14:30:00,
2013-11-03 08:35:00,47.3,34.1,29.89,South,171,24.0,26.0,60,0.00,,,0.00,257,Wunderground v.1.15,2013-11-03 14:35:00,
2013-11-03 08:40:00,47.5,34.3,29.88,SSE,154,26.0,35.0,60,0.00,,,0.00,274,Wunderground v.1.15,2013-11-03 14:40:00,
2013-11-03 08:45:00,47.6,34.4,29.89,SSE,167,22.0,35.0,60,0.00,,,0.00,195,Wunderground v.1.15,2013-11-03 14:45:00,
2013-11-03 08:51:00,47.6,34.4,29.89,South,181,18.0,25.0,60,0.00,,,0.00,171,Wunderground v.1.15,2013-11-03 14:51:00,
2013-11-03 08:55:00,47.4,33.8,29.89,SSE,159,25.0,30.0,59,0.00,,,0.00,207,Wunderground v.1.15,2013-11-03 14:55:00,
2013-11-03 09:01:00,47.5,34.3,29.88,SSE,157,18.0,21.0,60,0.00,,,0.00,229,Wunderground v.1.15,2013-11-03 15:01:00,
2013-11-03 09:06:00,47.8,35.0,29.88,South,175,17.0,29.0,61,0.00,,,0.00,250,Wunderground v.1.15,2013-11-03 15:06:00,
2013-11-03 09:11:00,48.2,34.5,29.88,SSE,159,19.0,27.0,59,0.00,,,0.00,248,Wunderground v.1.15,2013-11-03 15:11:00,
2013-11-03 09:16:00,48.5,34.4,29.88,South,171,14.0,27.0,58,0.00,,,0.00,169,Wunderground v.1.15,2013-11-03 15:16:00,
2013-11-03 09:20:00,48.6,34.5,29.88,South,184,19.0,25.0,58,0.00,,,0.00,183,Wunderground v.1.15,2013-11-03 15:20:00,
2013-11-03 09:26:00,48.7,35.0,29.88,SSE,165,14.0,25.0,59,0.00,,,0.00,295,Wunderground v.1.15,2013-11-03 15:26:00,
2013-11-03 09:31:00,49.1,34.9,29.87,SSE,161,17.0,22.0,58,0.00,,,0.00,209,Wunderground v.1.15,2013-11-03 15:31:00,
2013-11-03 09:36:00,49.6,35.4,29.87,South,186,21.0,25.0,58,0.00,,,0.00,339,Wunderground v.1.15,2013-11-03 15:36:00,
2013-11-03 09:41:00,50.6,35.9,29.86,South,175,14.0,22.0,57,0.00,,,0.00,352,Wunderground v.1.15,2013-11-03 15:41:00,
2013-11-03 09:46:00,51.2,35.1,29.86,SSE,167,22.0,26.0,54,0.00,,,0.00,236,Wunderground v.1.15,2013-11-03 15:46:00,
2013-11-03 09:51:00,51.6,34.5,29.86,South,178,30.0,32.0,52,0.00,,,0.00,334,Wunderground v.1.15,2013-11-03 15:51:00,
2013-11-03 09:55:00,52.1,34.5,29.86,SSE,159,26.0,32.0,51,0.00,,,0.00,480,Wunderground v.1.15,2013-11-03 15:55:00,
2013-11-03 10:01:00,53.1,34.9,29.85,SSE,165,21.0,26.0,50,0.00,,,0.00,469,Wunderground v.1.15,2013-11-03 16:01:00,
2013-11-03 10:06:00,53.7,35.0,29.85,South,173,25.0,29.0,49,0.00,,,0.00,304,Wunderground v.1.15,2013-11-03 16:06:00,
2013-11-03 10:11:00,53.6,34.9,29.84,South,180,14.0,24.0,49,0.00,,,0.00,348,Wunderground v.1.15,2013-11-03 16:11:00,
2013-11-03 10:16:00,53.3,34.6,29.84,SSE,167,24.0,33.0,49,0.00,,,0.00,330,Wunderground v.1.15,2013-11-03 16:16:00,
2013-11-03 10:21:00,53.0,34.8,29.84,SSE,160,24.0,25.0,50,0.00,,,0.00,257,Wunderground v.1.15,2013-11-03 16:21:00,
2013-11-03 10:26:00,52.9,34.8,29.84,South,173,25.0,30.0,50,0.00,,,0.00,336,Wunderground v.1.15,2013-11-03 16:26:00,
2013-11-03 10:31:00,53.0,34.3,29.84,SSE,167,26.0,32.0,49,0.00,,,0.00,297,Wunderground v.1.15,2013-11-03 16:31:00,
2013-11-03 10:36:00,53.3,34.6,29.84,South,175,22.0,33.0,49,0.00,,,0.00,285,Wunderground v.1.15,2013-11-03 16:36:00,
2013-11-03 10:41:00,53.5,34.8,29.84,SSE,164,18.0,30.0,49,0.00,,,0.00,345,Wunderground v.1.15,2013-11-03 16:41:00,
2013-11-03 10:46:00,53.7,35.0,29.83,South,173,16.0,35.0,49,0.00,,,0.00,257,Wunderground v.1.15,2013-11-03 16:46:00,
2013-11-03 10:51:00,53.9,35.2,29.83,SSE,160,25.0,27.0,49,0.00,,,0.00,459,Wunderground v.1.15,2013-11-03 16:51:00,
2013-11-03 10:56:00,54.3,35.5,29.83,South,182,24.0,29.0,49,0.00,,,0.00,213,Wunderground v.1.15,2013-11-03 16:56:00,
2013-11-03 11:01:00,54.4,35.6,29.83,SSE,163,22.0,26.0,49,0.00,,,0.00,230,Wunderground v.1.15,2013-11-03 17:01:00,
2013-11-03 11:06:00,55.1,35.7,29.83,South,175,29.0,29.0,48,0.00,,,0.00,475,Wunderground v.1.15,2013-11-03 17:06:00,
2013-11-03 11:11:00,56.5,35.4,29.82,South,174,28.0,38.0,45,0.00,,,0.00,506,Wunderground v.1.15,2013-11-03 17:11:00,
2013-11-03 11:16:00,57.1,35.4,29.82,South,174,32.0,40.0,44,0.00,,,0.00,410,Wunderground v.1.15,2013-11-03 17:16:00,
2013-11-03 11:21:00,56.8,34.5,29.82,South,175,29.0,31.0,43,0.00,,,0.00,299,Wunderground v.1.15,2013-11-03 17:21:00,
2013-11-03 11:26:00,56.3,35.2,29.81,South,178,25.0,32.0,45,0.00,,,0.00,462,Wunderground v.1.15,2013-11-03 17:26:00,
2013-11-03 11:31:00,56.6,35.5,29.81,South,173,27.0,30.0,45,0.00,,,0.00,385,Wunderground v.1.15,2013-11-03 17:31:00,
2013-11-03 11:36:00,56.8,35.1,29.81,SSE,159,29.0,36.0,44,0.00,,,0.00,364,Wunderground v.1.15,2013-11-03 17:36:00,
2013-11-03 11:41:00,56.5,35.4,29.81,South,173,20.0,27.0,45,0.00,,,0.00,306,Wunderground v.1.15,2013-11-03 17:41:00,
2013-11-03 11:46:00,56.3,35.8,29.80,South,177,33.0,33.0,46,0.00,,,0.00,343,Wunderground v.1.15,2013-11-03 17:46:00,
2013-11-03 11:51:00,56.4,35.3,29.79,South,177,22.0,30.0,45,0.00,,,0.00,341,Wunderground v.1.15,2013-11-03 17:51:00,
2013-11-03 11:56:00,56.8,35.7,29.80,South,173,21.0,30.0,45,0.00,,,0.00,294,Wunderground v.1.15,2013-11-03 17:56:00,
2013-11-03 12:01:00,56.8,35.7,29.79,South,186,24.0,34.0,45,0.00,,,0.00,427,Wunderground v.1.15,2013-11-03 18:01:00,
2013-11-03 12:06:00,57.3,35.6,29.79,South,178,28.0,36.0,44,0.00,,,0.00,578,Wunderground v.1.15,2013-11-03 18:06:00,
2013-11-03 12:11:00,57.7,35.9,29.78,SSE,164,36.0,36.0,44,0.00,,,0.00,378,Wunderground v.1.15,2013-11-03 18:11:00,
2013-11-03 12:16:00,57.9,36.1,29.78,South,178,24.0,36.0,44,0.00,,,0.00,318,Wunderground v.1.15,2013-11-03 18:16:00,
2013-11-03 12:21:00,57.8,36.0,29.78,SSE,150,27.0,33.0,44,0.00,,,0.00,316,Wunderground v.1.15,2013-11-03 18:21:00,
2013-11-03 12:26:00,57.7,35.9,29.77,SSE,163,18.0,37.0,44,0.00,,,0.00,329,Wunderground v.1.15,2013-11-03 18:26:00,
2013-11-03 12:31:00,57.8,36.0,29.77,South,182,20.0,33.0,44,0.00,,,0.00,454,Wunderground v.1.15,2013-11-03 18:31:00,
2013-11-03 12:35:00,58.2,36.4,29.76,South,177,25.0,33.0,44,0.00,,,0.00,345,Wunderground v.1.15,2013-11-03 18:35:00,
2013-11-03 12:40:00,58.2,35.8,29.76,South,184,32.0,33.0,43,0.00,,,0.00,399,Wunderground v.1.15,2013-11-03 18:40:00,
2013-11-03 12:46:00,57.8,36.0,29.76,SSE,167,24.0,33.0,44,0.00,,,0.00,304,Wunderground v.1.15,2013-11-03 18:46:00,
2013-11-03 12:51:00,57.7,35.9,29.75,SSE,162,29.0,30.0,44,0.00,,,0.00,338,Wunderground v.1.15,2013-11-03 18:51:00,
2013-11-03 12:56:00,57.8,36.0,29.75,South,176,27.0,32.0,44,0.00,,,0.00,320,Wunderground v.1.15,2013-11-03 18:56:00,
2013-11-03 13:01:00,57.9,36.1,29.75,South,178,22.0,28.0,44,0.00,,,0.00,294,Wunderground v.1.15,2013-11-03 19:01:00,
2013-11-03 13:06:00,57.9,36.7,29.75,South,179,18.0,28.0,45,0.00,,,0.00,285,Wunderground v.1.15,2013-11-03 19:06:00,
2013-11-03 13:11:00,57.8,36.6,29.75,South,171,22.0,29.0,45,0.00,,,0.00,276,Wunderground v.1.15,2013-11-03 19:11:00,
2013-11-03 13:16:00,57.7,36.5,29.75,South,171,25.0,29.0,45,0.00,,,0.00,265,Wunderground v.1.15,2013-11-03 19:16:00,
2013-11-03 13:21:00,57.6,37.0,29.75,SSE,168,29.0,30.0,46,0.00,,,0.00,283,Wunderground v.1.15,2013-11-03 19:21:00,
2013-11-03 13:26:00,57.6,36.4,29.75,South,188,29.0,33.0,45,0.00,,,0.00,276,Wunderground v.1.15,2013-11-03 19:26:00,
2013-11-03 13:31:00,57.7,36.5,29.75,South,169,27.0,32.0,45,0.00,,,0.00,297,Wunderground v.1.15,2013-11-03 19:31:00,
2013-11-03 13:36:00,57.8,36.6,29.75,SSE,162,25.0,32.0,45,0.00,,,0.00,283,Wunderground v.1.15,2013-11-03 19:36:00,
2013-11-03 13:41:00,57.9,37.2,29.74,SSE,163,22.0,26.0,46,0.00,,,0.00,283,Wunderground v.1.15,2013-11-03 19:41:00,
2013-11-03 13:46:00,58.0,37.3,29.74,South,169,30.0,30.0,46,0.00,,,0.00,272,Wunderground v.1.15,2013-11-03 19:46:00,
2013-11-03 13:51:00,58.0,37.3,29.74,SSE,165,23.0,28.0,46,0.00,,,0.00,269,Wunderground v.1.15,2013-11-03 19:51:00,
2013-11-03 13:56:00,58.1,38.0,29.74,SSE,165,21.0,28.0,47,0.00,,,0.00,292,Wunderground v.1.15,2013-11-03 19:56:00,
2013-11-03 14:01:00,58.3,38.1,29.74,South,178,23.0,24.0,47,0.00,,,0.00,288,Wunderground v.1.15,2013-11-03 20:01:00,
2013-11-03 14:06:00,58.3,37.6,29.73,SSE,157,24.0,31.0,46,0.00,,,0.00,255,Wunderground v.1.15,2013-11-03 20:06:00,
2013-11-03 14:11:00,58.2,37.5,29.73,South,180,14.0,26.0,46,0.00,,,0.00,225,Wunderground v.1.15,2013-11-03 20:11:00,
2013-11-03 14:16:00,58.1,37.4,29.73,SSE,156,27.0,29.0,46,0.00,,,0.00,241,Wunderground v.1.15,2013-11-03 20:16:00,
2013-11-03 14:21:00,58.1,37.4,29.72,SSE,159,18.0,26.0,46,0.00,,,0.00,274,Wunderground v.1.15,2013-11-03 20:21:00,
2013-11-03 14:26:00,58.3,38.1,29.72,SSE,154,20.0,26.0,47,0.00,,,0.00,492,Wunderground v.1.15,2013-11-03 20:26:00,
2013-11-03 14:31:00,59.0,38.2,29.71,SSE,161,23.0,26.0,46,0.00,,,0.00,371,Wunderground v.1.15,2013-11-03 20:31:00,
2013-11-03 14:36:00,59.3,37.4,29.71,SSE,165,19.0,28.0,44,0.00,,,0.00,250,Wunderground v.1.15,2013-11-03 20:36:00,
2013-11-03 14:41:00,59.4,37.5,29.71,South,177,22.0,27.0,44,0.00,,,0.00,297,Wunderground v.1.15,2013-11-03 20:41:00,
2013-11-03 14:46:00,59.4,38.0,29.71,SSE,159,22.0,27.0,45,0.00,,,0.00,255,Wunderground v.1.15,2013-11-03 20:46:00,
2013-11-03 14:51:00,59.2,37.3,29.71,SSE,159,27.0,27.0,44,0.00,,,0.00,230,Wunderground v.1.15,2013-11-03 20:51:00,
2013-11-03 14:56:00,58.9,37.6,29.71,SE,138,22.0,30.0,45,0.00,,,0.00,439,Wunderground v.1.15,2013-11-03 20:56:00,
2013-11-03 15:01:00,59.0,37.7,29.70,SSE,161,25.0,33.0,45,0.00,,,0.00,209,Wunderground v.1.15,2013-11-03 21:01:00,
2013-11-03 15:06:00,58.6,37.3,29.70,SSE,148,21.0,33.0,45,0.00,,,0.00,172,Wunderground v.1.15,2013-11-03 21:06:00,
2013-11-03 15:11:00,58.3,37.6,29.70,South,169,25.0,29.0,46,0.00,,,0.00,176,Wunderground v.1.15,2013-11-03 21:11:00,
2013-11-03 15:16:00,58.2,37.5,29.70,SSE,158,18.0,29.0,46,0.00,,,0.00,165,Wunderground v.1.15,2013-11-03 21:16:00,
2013-11-03 15:21:00,58.2,37.5,29.70,SSE,165,19.0,30.0,46,0.00,,,0.00,160,Wunderground v.1.15,2013-11-03 21:21:00,
2013-11-03 15:26:00,58.1,37.4,29.71,SSE,158,21.0,30.0,46,0.00,,,0.00,169,Wunderground v.1.15,2013-11-03 21:26:00,
2013-11-03 15:31:00,58.0,37.3,29.71,South,171,22.0,28.0,46,0.00,,,0.00,169,Wunderground v.1.15,2013-11-03 21:31:00,
2013-11-03 15:36:00,58.0,37.3,29.71,South,173,24.0,28.0,46,0.00,,,0.00,262,Wunderground v.1.15,2013-11-03 21:36:00,
2013-11-03 15:41:00,58.1,38.0,29.71,South,184,19.0,21.0,47,0.00,,,0.00,216,Wunderground v.1.15,2013-11-03 21:41:00,
2013-11-03 15:46:00,58.3,37.6,29.71,SSE,155,21.0,26.0,46,0.00,,,0.00,179,Wunderground v.1.15,2013-11-03 21:46:00,
2013-11-03 15:51:00,58.4,37.7,29.71,South,183,13.0,26.0,46,0.00,,,0.00,141,Wunderground v.1.15,2013-11-03 21:51:00,
2013-11-03 15:56:00,58.4,37.7,29.70,SSE,167,13.0,26.0,46,0.00,,,0.00,121,Wunderground v.1.15,2013-11-03 21:56:00,
2013-11-03 16:01:00,58.2,38.1,29.70,SE,140,26.0,26.0,47,0.00,,,0.00,114,Wunderground v.1.15,2013-11-03 22:01:00,
2013-11-03 16:06:00,57.9,37.8,29.70,SSE,150,17.0,26.0,47,0.00,,,0.00,105,Wunderground v.1.15,2013-11-03 22:06:00,
2013-11-03 16:11:00,57.7,37.6,29.70,SE,135,21.0,25.0,47,0.00,,,0.00,74,Wunderground v.1.15,2013-11-03 22:11:00,
2013-11-03 16:16:00,57.6,37.5,29.69,SSE,162,20.0,25.0,47,0.00,,,0.00,53,Wunderground v.1.15,2013-11-03 22:16:00,
2013-11-03 16:21:00,57.4,37.9,29.70,SSE,161,19.0,24.0,48,0.00,,,0.00,49,Wunderground v.1.15,2013-11-03 22:21:00,
2013-11-03 16:26:00,57.3,37.8,29.70,South,171,18.0,24.0,48,0.00,,,0.00,46,Wunderground v.1.15,2013-11-03 22:26:00,
2013-11-03 16:31:00,57.3,37.8,29.70,SSE,163,24.0,25.0,48,0.00,,,0.00,40,Wunderground v.1.15,2013-11-03 22:31:00,
2013-11-03 16:36:00,57.3,37.8,29.70,SSE,168,15.0,25.0,48,0.00,,,0.00,35,Wunderground v.1.15,2013-11-03 22:36:00,
2013-11-03 16:45:00,57.3,37.8,29.70,South,171,19.0,19.0,48,0.00,,,0.00,21,Wunderground v.1.15,2013-11-03 22:45:00,
2013-11-03 16:50:00,57.1,37.6,29.70,SSE,159,18.0,24.0,48,0.00,,,0.00,14,Wunderground v.1.15,2013-11-03 22:50:00,
2013-11-03 16:55:00,56.9,37.4,29.70,SSE,155,13.0,24.0,48,0.00,,,0.00,11,Wunderground v.1.15,2013-11-03 22:55:00,
2013-11-03 17:00:00,56.6,38.2,29.70,SSE,154,26.0,26.0,50,0.00,,,0.00,7,Wunderground v.1.15,2013-11-03 23:00:00,
2013-11-03 17:05:00,56.4,38.0,29.71,SSE,157,16.0,26.0,50,0.00,,,0.00,5,Wunderground v.1.15,2013-11-03 23:05:00,
2013-11-03 17:10:00,56.1,37.7,29.71,SSE,150,20.0,20.0,50,0.00,,,0.00,5,Wunderground v.1.15,2013-11-03 23:10:00,
2013-11-03 17:15:00,55.9,38.0,29.70,SSE,155,17.0,21.0,51,0.00,,,0.00,5,Wunderground v.1.15,2013-11-03 23:15:00,
2013-11-03 17:20:00,55.8,37.9,29.70,South,172,16.0,19.0,51,0.00,,,0.00,0,Wunderground v.1.15,2013-11-03 23:20:00,
2013-11-03 17:25:00,55.6,38.2,29.70,SSE,158,20.0,22.0,52,0.00,,,0.00,0,Wunderground v.1.15,2013-11-03 23:25:00,
2013-11-03 17:30:00,55.4,38.5,29.70,SSE,160,16.0,21.0,53,0.00,,,0.00,0,Wunderground v.1.15,2013-11-03 23:30:00,
2013-11-03 17:35:00,55.1,38.3,29.70,SE,144,23.0,25.0,53,0.00,,,0.00,0,Wunderground v.1.15,2013-11-03 23:35:00,
2013-11-03 17:40:00,55.0,38.2,29.70,SSE,157,23.0,26.0,53,0.00,,,0.00,0,Wunderground v.1.15,2013-11-03 23:40:00,
2013-11-03 17:45:00,54.9,38.6,29.70,SE,142,20.0,26.0,54,0.00,,,0.00,0,Wunderground v.1.15,2013-11-03 23:45:00,
2013-11-03 17:50:00,54.7,38.4,29.70,SSE,159,17.0,20.0,54,0.00,,,0.00,0,Wunderground v.1.15,2013-11-03 23:50:00,
2013-11-03 17:55:00,54.6,38.7,29.70,SSE,158,21.0,23.0,55,0.00,,,0.00,0,Wunderground v.1.15,2013-11-03 23:55:00,
2013-11-03 18:00:00,54.6,38.3,29.70,SSE,154,18.0,20.0,54,0.00,,,0.00,0,Wunderground v.1.15,2013-11-04 00:00:00,
2013-11-03 18:05:00,54.6,38.7,29.70,SSE,159,20.0,23.0,55,0.00,,,0.00,0,Wunderground v.1.15,2013-11-04 00:05:00,
2013-11-03 18:10:00,54.6,38.7,29.70,SSE,154,26.0,26.0,55,0.00,,,0.00,0,Wunderground v.1.15,2013-11-04 00:10:00,
2013-11-03 18:15:00,54.6,38.7,29.71,SSE,161,16.0,26.0,55,0.00,,,0.00,0,Wunderground v.1.15,2013-11-04 00:15:00,
2013-11-03 18:20:00,54.4,38.6,29.72,South,169,17.0,24.0,55,0.00,,,0.00,0,Wunderground v.1.15,2013-11-04 00:20:00,
2013-11-03 18:25:00,54.2,38.8,29.72,SSE,168,14.0,26.0,56,0.00,,,0.00,0,Wunderground v.1.15,2013-11-04 00:25:00,
2013-11-03 18:30:00,54.1,38.7,29.71,SSE,150,22.0,22.0,56,0.00,,,0.00,0,Wunderground v.1.15,2013-11-04 00:30:00,
2013-11-03 18:35:00,54.0,38.6,29.71,SSE,153,19.0,23.0,56,0.00,,,0.00,0,Wunderground v.1.15,2013-11-04 00:35:00,
2013-11-03 18:40:00,53.9,39.0,29.71,SSE,163,15.0,20.0,57,0.00,,,0.00,0,Wunderground v.1.15,2013-11-04 00:40:00,
2013-11-03 18:45:00,53.8,38.9,29.71,SSE,159,17.0,20.0,57,0.00,,,0.00,0,Wunderground v.1.15,2013-11-04 00:45:00,
2013-11-03 18:50:00,53.9,39.0,29.71,SSE,157,14.0,23.0,57,0.00,,,0.00,0,Wunderground v.1.15,2013-11-04 00:50:00,
2013-11-03 18:55:00,53.9,39.0,29.72,SSE,165,18.0,23.0,57,0.00,,,0.00,0,Wunderground v.1.15,2013-11-04 00:55:00,
2013-11-03 19:00:00,53.9,39.0,29.72,SSE,161,14.0,18.0,57,0.00,,,0.00,0,Wunderground v.1.15,2013-11-04 01:00:00,
2013-11-03 19:05:00,53.9,39.0,29.72,South,173,12.0,23.0,57,0.00,,,0.00,0,Wunderground v.1.15,2013-11-04 01:05:00,
2013-11-03 19:10:00,53.7,39.3,29.72,SSE,161,19.0,19.0,58,0.00,,,0.00,0,Wunderground v.1.15,2013-11-04 01:10:00,
2013-11-03 19:15:00,53.5,39.1,29.72,SSE,157,16.0,21.0,58,0.00,,,0.00,0,Wunderground v.1.15,2013-11-04 01:15:00,
2013-11-03 19:20:00,53.2,39.2,29.72,SSE,157,17.0,21.0,59,0.00,,,0.00,0,Wunderground v.1.15,2013-11-04 01:20:00,
2013-11-03 19:25:00,53.0,39.5,29.72,SSE,155,18.0,22.0,60,0.00,,,0.00,0,Wunderground v.1.15,2013-11-04 01:25:00,
2013-11-03 19:30:00,52.8,39.3,29.72,SSE,148,13.0,15.0,60,0.00,,,0.00,0,Wunderground v.1.15,2013-11-04 01:30:00,
2013-11-03 19:35:00,52.5,39.4,29.71,SSE,156,19.0,20.0,61,0.00,,,0.00,0,Wunderground v.1.15,2013-11-04 01:35:00,
2013-11-03 19:40:00,52.4,39.3,29.72,SSE,162,14.0,21.0,61,0.00,,,0.00,0,Wunderground v.1.15,2013-11-04 01:40:00,
2013-11-03 19:45:00,52.5,39.4,29.71,SSE,163,17.0,22.0,61,0.00,,,0.00,0,Wunderground v.1.15,2013-11-04 01:45:00,
2013-11-03 19:50:00,52.6,39.5,29.71,South,170,14.0,20.0,61,0.00,,,0.00,0,Wunderground v.1.15,2013-11-04 01:50:00,
2013-11-03 19:55:00,52.7,39.6,29.72,SSE,157,15.0,21.0,61,0.00,,,0.00,0,Wunderground v.1.15,2013-11-04 01:55:00,
2013-11-03 20:00:00,52.7,39.6,29.72,SSE,157,24.0,26.0,61,0.00,,,0.00,0,Wunderground v.1.15,2013-11-04 02:00:00,
2013-11-03 20:05:00,52.8,39.7,29.72,SSE,159,15.0,26.0,61,0.00,,,0.00,0,Wunderground v.1.15,2013-11-04 02:05:00,
2013-11-03 20:10:00,53.0,39.9,29.72,SSE,163,19.0,21.0,61,0.00,,,0.00,0,Wunderground v.1.15,2013-11-04 02:10:00,
2013-11-03 20:15:00,53.2,39.7,29.72,South,175,20.0,21.0,60,0.00,,,0.00,0,Wunderground v.1.15,2013-11-04 02:15:00,
2013-11-03 20:20:00,53.3,39.8,29.72,SSE,150,26.0,26.0,60,0.00,,,0.00,0,Wunderground v.1.15,2013-11-04 02:20:00,
2013-11-03 20:25:00,53.5,39.5,29.72,SSE,164,13.0,26.0,59,0.00,,,0.00,0,Wunderground v.1.15,2013-11-04 02:25:00,
2013-11-03 20:30:00,53.5,39.5,29.73,South,175,18.0,21.0,59,0.00,,,0.00,0,Wunderground v.1.15,2013-11-04 02:30:00,
2013-11-03 20:35:00,53.6,39.6,29.73,South,178,20.0,21.0,59,0.00,,,0.00,0,Wunderground v.1.15,2013-11-04 02:35:00,
2013-11-03 20:40:00,53.6,39.6,29.73,South,173,11.0,21.0,59,0.00,,,0.00,0,Wunderground v.1.15,2013-11-04 02:40:00,
2013-11-03 20:45:00,53.5,39.5,29.73,SSE,161,15.0,21.0,59,0.00,,,0.00,0,Wunderground v.1.15,2013-11-04 02:45:00,
2013-11-03 20:50:00,53.2,39.2,29.73,SSE,159,20.0,24.0,59,0.00,,,0.00,0,Wunderground v.1.15,2013-11-04 02:50:00,
2013-11-03 20:55:00,53.1,39.1,29.72,SSE,168,14.0,24.0,59,0.00,,,0.00,0,Wunderground v.1.15,2013-11-04 02:55:00,
2013-11-03 21:00:00,52.9,39.4,29.73,SSE,165,14.0,16.0,60,0.00,,,0.00,0,Wunderground v.1.15,2013-11-04 03:00:00,
2013-11-03 21:05:00,52.9,39.4,29.73,SE,146,15.0,19.0,60,0.00,,,0.00,0,Wunderground v.1.15,2013-11-04 03:05:00,
2013-11-03 21:10:00,52.9,39.4,29.73,SSE,158,14.0,16.0,60,0.00,,,0.00,0,Wunderground v.1.15,2013-11-04 03:10:00,
2013-11-03 21:15:00,52.8,39.3,29.73,SSE,167,17.0,22.0,60,0.00,,,0.00,0,Wunderground v.1.15,2013-11-04 03:15:00,
2013-11-03 21:20:00,52.8,39.3,29.73,SSE,157,15.0,20.0,60,0.00,,,0.00,0,Wunderground v.1.15,2013-11-04 03:20:00,
2013-11-03 21:25:00,52.7,39.6,29.73,SSE,161,12.0,20.0,61,0.00,,,0.00,0,Wunderground v.1.15,2013-11-04 03:25:00,
2013-11-03 21:30:00,52.6,39.5,29.73,South,183,10.0,15.0,61,0.00,,,0.00,0,Wunderground v.1.15,2013-11-04 03:30:00,
2013-11-03 21:35:00,52.5,39.4,29.73,South,183,14.0,17.0,61,0.00,,,0.00,0,Wunderground v.1.15,2013-11-04 03:35:00,
2013-11-03 21:40:00,52.4,39.3,29.73,SSE,160,13.0,16.0,61,0.00,,,0.00,0,Wunderground v.1.15,2013-11-04 03:40:00,
2013-11-03 21:45:00,52.3,39.2,29.73,SE,132,16.0,16.0,61,0.00,,,0.00,0,Wunderground v.1.15,2013-11-04 03:45:00,
2013-11-03 21:50:00,52.2,39.6,29.73,SSE,164,12.0,14.0,62,0.00,,,0.00,0,Wunderground v.1.15,2013-11-04 03:50:00,
2013-11-03 21:55:00,52.1,39.5,29.73,SSE,167,16.0,19.0,62,0.00,,,0.00,0,Wunderground v.1.15,2013-11-04 03:55:00,
2013-11-03 22:00:00,52.2,39.6,29.73,SSE,152,16.0,16.0,62,0.00,,,0.00,0,Wunderground v.1.15,2013-11-04 04:00:00,
2013-11-03 22:05:00,52.1,39.1,29.74,SSE,165,13.0,19.0,61,0.00,,,0.00,0,Wunderground v.1.15,2013-11-04 04:05:00,
2013-11-03 22:10:00,52.1,39.1,29.74,SSE,168,18.0,18.0,61,0.00,,,0.00,0,Wunderground v.1.15,2013-11-04 04:10:00,
2013-11-03 22:15:00,52.2,39.1,29.73,South,181,21.0,21.0,61,0.00,,,0.00,0,Wunderground v.1.15,2013-11-04 04:15:00,
2013-11-03 22:20:00,52.2,39.1,29.73,SSE,159,15.0,16.0,61,0.00,,,0.00,0,Wunderground v.1.15,2013-11-04 04:20:00,
2013-11-03 22:25:00,52.1,39.1,29.73,South,190,13.0,18.0,61,0.00,,,0.00,0,Wunderground v.1.15,2013-11-04 04:25:00,
2013-11-03 22:30:00,52.1,39.1,29.73,SSE,157,15.0,20.0,61,0.00,,,0.00,0,Wunderground v.1.15,2013-11-04 04:30:00,
2013-11-03 22:35:00,52.0,39.0,29.73,SSE,168,15.0,22.0,61,0.00,,,0.00,0,Wunderground v.1.15,2013-11-04 04:35:00,
2013-11-03 22:40:00,52.0,39.0,29.73,South,169,12.0,15.0,61,0.00,,,0.00,0,Wunderground v.1.15,2013-11-04 04:40:00,
2013-11-03 22:45:00,51.9,38.9,29.74,SSE,167,17.0,19.0,61,0.00,,,0.00,0,Wunderground v.1.15,2013-11-04 04:45:00,
2013-11-03 22:50:00,51.9,38.9,29.74,SSE,159,11.0,14.0,61,0.00,,,0.00,0,Wunderground v.1.15,2013-11-04 04:50:00,
2013-11-03 22:55:00,51.9,38.9,29.74,SSE,162,11.0,17.0,61,0.00,,,0.00,0,Wunderground v.1.15,2013-11-04 04:55:00,
2013-11-03 23:00:00,51.9,38.9,29.74,South,171,12.0,13.0,61,0.00,,,0.00,0,Wunderground v.1.15,2013-11-04 05:00:00,
2013-11-03 23:01:00,51.9,38.9,29.74,SSE,157,11.0,13.0,61,0.00,,,0.00,0,Wunderground v.1.15,2013-11-04 05:01:00,
2013-11-03 23:05:00,51.9,38.9,29.74,SSE,163,13.0,17.0,61,0.00,,,0.00,0,Wunderground v.1.15,2013-11-04 05:05:00,
2013-11-03 23:10:00,52.0,39.0,29.74,South,176,14.0,14.0,61,0.00,,,0.00,0,Wunderground v.1.15,2013-11-04 05:10:00,
2013-11-03 23:15:00,51.9,38.9,29.73,South,175,10.0,15.0,61,0.00,,,0.00,0,Wunderground v.1.15,2013-11-04 05:15:00,
2013-11-03 23:20:00,51.9,38.9,29.73,SSE,155,11.0,13.0,61,0.00,,,0.00,0,Wunderground v.1.15,2013-11-04 05:20:00,
2013-11-03 23:25:00,51.8,38.8,29.73,South,173,9.0,13.0,61,0.00,,,0.00,0,Wunderground v.1.15,2013-11-04 05:25:00,
2013-11-03 23:30:00,51.8,38.8,29.73,South,180,18.0,18.0,61,0.00,,,0.00,0,Wunderground v.1.15,2013-11-04 05:30:00,
2013-11-03 23:35:00,52.0,39.0,29.73,South,174,18.0,19.0,61,0.00,,,0.00,0,Wunderground v.1.15,2013-11-04 05:35:00,
2013-11-03 23:40:00,52.2,39.1,29.73,SSE,159,11.0,15.0,61,0.00,,,0.00,0,Wunderground v.1.15,2013-11-04 05:40:00,
2013-11-03 23:45:00,52.3,39.2,29.73,South,182,14.0,20.0,61,0.00,,,0.00,0,Wunderground v.1.15,2013-11-04 05:45:00,
2013-11-03 23:50:00,52.4,39.3,29.73,SSE,167,17.0,17.0,61,0.00,,,0.00,0,Wunderground v.1.15,2013-11-04 05:50:00,
2013-11-03 23:55:00,52.6,39.1,29.73,South,174,17.0,17.0,60,0.00,,,0.00,0,Wunderground v.1.15,2013-11-04 05:55:00,